Location: Champs
(48.8539°N, 2.6040°E)
Time: 00:49:19
(UTC+00:00)

DMSP 5D-2 F13 DEB - Pass Details

Date: 18 August 2022
Orbit: 710 x 774 km, 98.8° (Epoch: 28 September)

Event Time Altitude Azimuth Distance (km) Brightness Sun altitude
Exits shadow 23:46:27 43° 280° (W) 1,094 ? -28.3°
Drops below altitude 10° 23:50:49 10° 334° (NNW) 2,346 ? -28.3°
Sets 23:53:16 0° 341° (NNW) 3,279 ? -28.3°
